|
NORAD ID: 34861 Int'l Code: 1993-036ACF
Perigee: 753.5 km
Apogee: 801.7 km
Inclination: 74.0 °
Period: 100.3 minutes
Semi major axis: 7148 km
Launch date: June 16, 1993
Source: Commonwealth of Independent States (former USSR) (CIS)
Note: This is SATELLITE DEBRIS
Two Line Element Set (TLE):
1 34861U 93036ACF 13167.62568758 .00001442 00000-0 49799-3 0 7561
2 34861 074.0385 356.2939 0033748 110.9123 315.4507 14.36390766219350
Source:
NASA's NSSDC Master Catalog entry for COSMOS 2251 DEB
|